D0A0126CE Weather Reports


time (UTC)temp
C
wind
direction
speed
KPH
gust
KPH
rain 1hr
cm
rain 24hr
cm
rain mn
cm
humidity
%
barometer
mb
20260506163139 4 318 3.2 16.1 0.00 0.00 0.00 96 979.5
20260506161539 4 313 4.8 14.5 0.00 0.00 0.00 96 979.7
20260506160038 4 323 8.0 16.1 0.00 0.00 0.00 96 979.8
20260506154537 4 323 8.0 16.1 0.00 0.00 0.00 96 979.5
20260506153035 4 321 8.0 17.7 0.00 0.00 0.00 96 979.5
20260506151535 4 324 9.7 29.0 0.00 0.00 0.00 96 979.6
20260506150035 5 319 8.0 16.1 0.00 0.00 0.00 96 979.7
20260506144538 5 315 11.3 19.3 0.00 0.00 0.00 96 979.7
20260506143036 5 325 8.0 16.1 0.00 0.00 0.00 95 979.8
20260506141534 5 325 8.0 17.7 0.00 0.00 0.00 95 979.9
20260506140038 5 321 6.4 17.7 0.00 0.00 0.00 95 980.1
20260506134537 5 320 8.0 17.7 0.00 0.00 0.00 95 979.9
20260506133038 5 332 11.3 20.9 0.00 0.00 0.00 94 979.8
20260506131546 4 319 11.3 20.9 0.00 0.00 0.00 94 979.8
20260506130042 4 326 11.3 19.3 0.00 0.00 0.00 93 979.8
20260506124532 4 315 9.7 22.5 0.00 0.03 0.00 93 979.8
20260506123031 5 325 9.7 24.1 0.00 0.03 0.00 93 979.8
20260506121528 5 324 3.2 16.1 0.00 0.03 0.00 93 979.8
20260506120029 5 319 8.0 19.3 0.00 0.03 0.00 93 979.6
20260506114530 5 321 6.4 14.5 0.00 0.03 0.00 94 979.7
20260506113025 5 329 8.0 20.9 0.00 0.03 0.00 95 979.7
20260506111524 5 317 9.7 19.3 0.00 0.03 0.00 95 979.9
20260506110025 5 323 6.4 17.7 0.00 0.03 0.00 95 979.6
20260506104522 5 321 8.0 20.9 0.00 0.03 0.00 95 979.5
20260506103025 5 315 8.0 16.1 0.00 0.03 0.00 95 979.6
20260506101538 5 316 8.0 19.3 0.00 0.03 0.00 95 979.7
20260506100023 5 321 8.0 16.1 0.00 0.03 0.00 95 979.7
20260506094525 5 331 8.0 16.1 0.00 0.03 0.00 95 979.8
20260506093025 5 333 12.9 19.3 0.00 0.03 0.00 96 979.5
20260506091520 5 311 11.3 17.7 0.00 0.03 0.00 96 979.3
20260506090019 6 323 11.3 20.9 0.00 0.03 0.00 97 979.2
20260506084517 6 323 12.9 20.9 0.00 0.03 0.00 97 979.0
20260506083015 6 324 9.7 19.3 0.00 0.03 0.00 97 979.5
20260506081514 6 344 11.3 19.3 0.00 0.03 0.00 97 979.3
20260506073024 6 319 11.3 17.7 0.00 0.03 0.00 97 979.5
20260506071509 6 350 12.9 20.9 0.00 0.03 0.00 97 979.9